Wind_Speed
8 10 8 8 10 8 7 7 7 7 7 7 6 6 6 6 5 5 5 4 3 3 4 3 3 2 1 1 2 4 5 5 5 5 4 6 7 9 11 12 13 14 15 16 17 18 18 19 20 20 21 21 21 22 22 23 23 23 23 23 22 22 22 23 24 24 23 24 24 24 24 23 22 21 20 19 18 18 18 17 18 18 18 18 18
8 10 8 8 9 9 9 8 10 10 9 8 7 6 6 6 5 4 3 3 3 3 3 2 2 2 2 2 3 3 5 7 6 6 6 7 8 9 12 14 14 15 16 17 18 19 19 20 21 21 22 22 22 22 23 23 23 23 23 23 23 22 22 23 23 24 24 24 24 23 24 23 22 22 21 21 20 19 19 18 18 18 18 18 18
9 10 9 9 9 8 7 7 10 9 7 8 8 7 7 5 4 4 2 3 2 2 3 3 3 3 4 5 4 4 6 8 10 10 9 10 11 11 12 14 15 16 18 19 20 20 20 21 22 22 23 23 24 23 23 22 23 23 22 23 23 23 23 23 23 23 23 24 24 23 23 23 23 22 22 22 21 20 19 20 20 18 18 18 19
11 11 10 10 9 8 7 7 10 9 7 7 9 11 10 8 5 4 3 4 3 4 5 5 5 5 5 5 4 4 6 8 11 14 15 14 14 14 14 14 15 17 19 21 21 21 22 22 23 23 23 24 24 24 23 23 23 23 23 23 24 24 23 23 23 22 22 22 23 23 24 24 24 23 23 22 22 22 20 20 21 20 19 19 19
11 12 11 11 9 8 9 9 10 9 9 10 8 8 7 7 4 4 4 5 5 5 6 7 7 7 5 3 5 7 8 9 11 13 17 18 18 18 18 18 18 18 20 22 23 22 22 23 22 23 23 24 24 24 24 24 24 24 25 25 25 25 24 24 23 23 22 22 21 22 23 24 24 24 23 23 22 22 22 21 21 21 21 21 20
11 12 12 11 8 7 9 10 9 7 8 8 4 2 1 2 3 4 5 4 5 6 7 8 6 5 5 4 7 9 10 11 12 13 15 19 21 22 22 23 23 21 21 22 24 23 22 23 23 23 24 24 25 25 25 25 25 25 26 26 25 25 25 24 23 23 22 22 21 21 22 23 24 24 24 24 23 22 23 22 22 22 22 22 21
12 13 12 10 8 7 9 8 6 4 6 6 1 1 1 2 3 4 4 5 6 6 7 6 5 5 6 7 9 11 12 13 14 15 16 18 21 23 24 26 27 26 24 22 23 24 23 23 24 24 24 24 25 25 25 25 25 26 26 26 25 25 25 24 24 24 23 23 23 22 22 22 23 24 24 25 24 24 23 22 23 23 22 22 23
13 14 12 10 8 8 8 6 5 5 6 4 1 1 2 3 3 3 4 5 6 6 5 5 6 8 8 8 11 12 14 16 17 18 19 19 20 21 23 24 25 26 25 23 23 23 23 23 23 23 23 24 25 25 25 26 26 25 25 25 25 25 25 25 25 25 24 24 24 23 23 23 22 23 24 24 25 26 25 23 23 24 24 23 23
14 14 10 8 8 7 6 6 6 6 5 3 1 3 3 3 4 4 5 5 7 7 5 5 7 9 10 11 13 14 15 17 19 20 21 21 21 21 22 22 22 23 24 24 23 22 22 22 23 24 24 24 25 25 25 25 25 25 25 25 25 26 26 25 25 25 25 24 24 24 23 23 23 23 23 23 24 26 27 26 24 24 24 25 24
14 13 10 8 7 5 6 7 6 5 3 3 3 4 4 5 5 4 5 6 8 8 7 7 8 10 11 13 14 16 18 19 20 20 21 22 22 21 20 20 21 22 22 22 22 22 23 23 24 25 25 26 26 26 26 25 26 26 26 25 25 25 25 25 25 24 24 24 24 24 23 23 23 23 23 23 23 24 26 27 27 26 25 25 26
13 11 11 9 6 6 8 6 5 4 4 4 4 5 6 6 6 6 6 7 9 10 8 9 10 10 12 14 16 18 19 20 20 21 21 21 20 19 19 20 21 21 21 21 23 24 25 26 26 25 25 26 26 26 26 26 26 26 26 25 25 24 24 24 24 24 24 25 25 25 25 25 25 25 25 24 24 24 24 25 27 28 27 26 27
13 11 10 9 6 7 8 6 5 5 5 5 5 6 7 7 7 7 8 9 11 12 11 11 12 13 14 16 18 19 20 20 20 21 20 19 19 19 19 20 20 20 21 23 24 25 26 27 27 27 26 25 25 25 25 26 26 25 24 24 24 24 23 24 24 24 25 25 26 26 26 27 27 28 28 27 27 27 26 25 25 28 29 28 27
13 12 9 7 5 5 5 5 5 6 6 6 6 6 6 7 8 9 9 11 12 12 12 13 15 16 17 18 19 20 20 20 20 19 18 17 18 19 19 19 20 21 23 23 24 25 25 26 26 26 26 26 25 25 25 24 24 24 23 23 23 23 23 23 24 24 25 25 26 27 27 28 29 30 30 31 31 31 30 29 28 27 28 29 29
13 13 11 9 7 4 4 4 5 6 7 7 7 7 8 9 10 10 11 12 13 12 13 14 17 18 18 19 19 19 19 19 18 17 17 17 18 18 19 20 21 22 22 23 24 24 25 25 25 26 26 26 26 25 24 23 22 22 22 22 22 23 23 24 24 25 26 26 27 28 29 29 30 31 32 32 33 33 33 33 33 31 29 30 30
13 13 12 10 8 6 5 5 6 8 8 8 8 10 11 12 12 12 13 13 13 13 14 17 19 19 19 18 17 17 17 16 16 16 16 17 17 18 19 20 21 22 22 23 24 24 25 25 25 26 26 25 25 24 22 21 20 20 21 21 22 23 24 25 26 26 27 28 29 29 30 31 31 32 32 33 33 34 34 35 35 35 34 32 31
15 14 13 11 9 8 7 7 9 10 11 11 11 12 13 12 13 14 13 13 14 14 16 18 20 20 19 19 18 18 16 14 15 16 16 16 17 18 19 20 21 22 23 24 24 24 24 25 25 25 25 24 23 22 21 20 20 21 21 21 22 23 24 26 27 28 29 30 30 31 32 32 33 33 34 35 35 35 35 36 36 37 37 36 34
16 16 14 11 9 9 9 10 12 13 13 13 12 12 12 13 14 14 14 14 15 17 18 19 19 19 19 19 18 18 17 16 16 16 16 17 18 18 19 20 21 22 23 24 25 25 25 24 24 24 23 22 22 21 20 20 20 21 22 23 24 25 26 28 29 30 31 32 33 34 34 35 35 36 36 37 38 38 38 37 37 37 38 38 38
17 16 13 11 10 10 11 12 14 14 14 13 12 12 13 14 14 14 14 15 17 19 19 19 19 18 18 18 18 18 17 17 17 16 16 16 17 18 19 19 21 22 23 24 25 25 25 25 24 22 22 21 20 20 20 21 21 21 23 24 26 28 29 31 32 33 34 35 36 37 37 38 38 39 39 40 40 41 41 40 40 39 38 38 38
15 14 12 11 11 12 13 14 15 15 15 14 13 13 13 14 14 15 16 17 19 20 19 19 18 18 17 16 17 17 17 17 17 17 16 16 15 17 18 19 21 22 23 24 24 25 25 25 24 22 21 21 20 20 21 22 23 23 25 26 28 30 31 33 34 36 37 38 39 40 40 41 42 42 43 43 43 44 44 43 41 40 39 39 38
14 13 12 13 13 13 14 15 16 16 15 14 13 13 14 15 15 16 17 19 20 20 20 19 18 17 16 15 15 16 16 17 17 18 19 18 16 15 16 20 21 23 24 23 24 25 25 24 24 22 21 21 21 22 23 23 25 26 28 29 30 31 33 34 36 37 38 39 40 41 42 43 44 45 46 47 48 48 47 45 43 40 38 38 38
13 13 13 14 14 14 14 15 15 15 14 14 14 14 15 16 17 18 19 21 21 20 20 19 17 16 15 15 15 15 16 17 17 17 19 20 20 18 17 18 19 20 22 24 24 25 24 23 21 21 21 22 23 24 25 26 27 28 29 31 32 33 34 36 37 38 39 40 41 43 44 45 46 46 48 49 50 50 50 47 44 40 37 35 36
13 13 14 14 14 14 15 15 15 15 14 14 15 15 16 17 18 20 21 21 20 20 19 18 17 16 15 14 15 15 16 16 16 17 18 19 20 21 21 21 21 20 21 23 24 22 21 21 20 21 22 23 24 25 26 27 28 29 31 32 33 34 35 36 37 38 39 41 42 43 44 45 46 47 48 49 50 49 48 46 44 41 38 35 33
14 14 15 13 13 15 15 16 16 15 15 15 16 17 17 19 20 21 21 20 20 20 19 17 16 15 15 15 15 15 16 16 16 17 17 16 17 19 21 22 25 25 22 23 23 21 20 21 21 22 23 24 25 26 27 28 30 31 32 33 33 34 35 36 37 38 39 40 41 42 43 44 46 47 49 49 49 49 46 44 43 41 39 36 33
15 15 15 14 14 16 16 17 17 16 16 16 17 18 19 20 21 21 20 20 20 19 18 17 16 16 15 15 15 16 16 16 17 16 16 15 16 17 19 20 23 26 26 25 23 21 21 22 22 23 24 25 26 27 27 29 30 32 32 32 33 34 35 35 36 37 37 38 39 40 42 44 45 47 48 49 49 48 47 45 43 42 40 37 34
15 15 16 16 16 16 17 17 17 17 17 17 18 19 20 20 20 20 20 20 20 18 17 17 16 16 16 16 16 16 17 17 17 16 15 15 15 17 18 19 20 22 25 27 26 23 23 23 23 24 24 25 26 28 29 30 31 33 33 34 34 34 35 36 36 36 36 37 39 40 41 43 44 45 46 47 47 46 46 45 44 43 41 38 35
16 16 16 17 17 17 18 18 18 18 18 19 19 20 20 20 19 19 20 19 18 18 17 17 16 16 16 16 17 17 17 17 16 15 15 15 15 16 17 18 18 19 20 23 25 24 22 22 23 24 25 26 28 29 30 31 32 33 34 35 35 35 35 35 36 36 37 37 38 39 40 41 43 44 45 46 46 45 44 44 44 43 41 39 36
16 16 17 17 17 17 18 18 18 19 19 19 19 19 19 19 19 19 19 18 18 17 17 17 16 16 16 17 17 17 17 17 16 15 15 15 15 16 17 18 18 17 16 17 20 22 21 21 22 24 25 26 28 30 31 32 32 33 34 35 35 35 34 35 36 36 36 37 37 38 40 41 42 43 44 45 44 43 42 42 42 42 41 39 37
17 16 16 17 17 17 17 18 18 18 19 19 19 19 18 18 18 18 18 17 17 17 17 17 17 17 17 17 18 18 17 16 16 15 15 15 15 16 17 18 18 17 16 16 17 20 20 20 21 23 25 27 28 30 31 32 33 34 34 34 34 34 34 34 35 35 36 36 37 38 39 41 42 43 44 44 43 42 42 41 41 40 39 39 37
17 16 16 16 16 16 17 17 17 17 18 18 18 18 18 18 18 17 17 17 17 17 17 17 17 17 17 18 18 18 17 16 15 15 15 14 15 15 16 16 17 16 16 17 17 18 19 21 22 23 25 27 28 30 31 32 33 33 33 33 33 33 33 34 34 35 36 36 37 38 39 40 42 43 43 43 42 42 42 41 41 39 38 37 37
18 17 16 17 17 16 16 16 16 17 17 18 18 17 17 17 17 17 17 17 17 17 17 17 18 17 18 18 18 17 16 16 15 15 14 14 14 15 15 15 15 15 15 16 18 18 19 20 22 23 25 27 29 30 30 31 31 31 31 32 32 33 33 34 35 36 36 37 38 38 39 40 41 42 42 42 42 42 42 42 41 39 37 36 35
19 18 18 18 17 16 16 15 16 17 18 18 17 16 16 16 16 17 17 17 17 17 18 18 18 18 18 18 17 16 16 15 15 14 14 14 14 14 14 14 14 14 15 15 17 19 20 21 22 24 26 27 29 30 30 30 30 31 31 31 32 33 33 35 36 36 37 38 39 39 39 40 40 41 41 41 41 42 43 43 42 40 37 35 33
20 19 19 18 18 17 16 16 17 18 17 16 15 15 16 16 16 17 17 17 17 18 18 18 18 18 18 17 16 16 15 15 14 14 13 13 14 14 13 13 13 13 14 15 16 18 21 23 24 26 27 27 28 30 31 31 31 32 32 32 33 33 34 35 36 37 37 38 40 40 41 41 41 42 42 42 42 42 43 43 42 40 37 34 32
20 20 19 19 18 18 17 18 18 17 16 15 15 15 16 16 16 16 17 18 18 18 18 18 18 18 17 16 16 16 15 14 14 13 13 13 13 13 12 12 12 13 14 15 17 18 20 23 25 26 27 28 29 30 32 33 34 34 33 33 33 33 34 35 36 37 38 39 40 41 42 43 43 44 44 43 42 42 42 42 42 40 37 34 32
21 20 20 20 19 19 18 19 18 17 16 15 15 15 15 15 16 17 18 18 18 18 18 18 18 17 17 16 16 15 15 14 14 13 13 13 13 12 12 12 12 13 15 16 18 19 20 22 24 26 27 29 30 32 34 35 36 36 35 34 34 34 34 35 36 38 38 39 40 42 44 44 45 46 46 43 42 42 42 41 40 40 37 34 32
22 21 20 20 20 20 20 20 19 18 16 15 15 15 14 15 16 17 17 18 18 18 18 18 18 17 17 16 15 15 14 14 13 13 13 13 13 12 12 12 13 14 16 17 19 21 22 23 25 27 29 30 32 33 35 36 37 37 36 35 35 35 34 35 37 39 39 39 40 42 45 45 46 47 46 44 43 44 44 42 39 37 36 34 32
22 21 20 21 21 21 21 21 20 18 17 16 15 15 14 15 16 16 17 17 18 18 17 17 17 17 16 15 15 14 14 13 13 13 13 13 12 12 12 13 14 15 17 19 21 22 24 25 26 28 30 32 34 35 37 37 37 37 36 36 35 35 35 35 37 39 40 39 40 42 45 46 48 48 47 46 45 45 45 43 39 36 34 33 32
22 21 21 22 22 22 22 22 21 20 19 17 16 15 15 15 15 15 16 17 17 17 17 17 17 16 15 15 14 14 13 13 12 12 12 12 12 12 13 13 14 16 18 19 21 23 25 26 27 29 30 33 35 36 37 38 38 37 37 36 36 36 37 37 38 40 41 40 40 42 46 47 48 49 48 47 47 46 45 43 41 39 35 32 32
21 21 22 23 23 24 23 23 23 22 20 19 18 16 15 14 14 15 15 16 17 17 17 16 15 15 14 14 14 13 13 12 12 12 11 11 11 12 13 13 14 16 18 20 21 23 25 27 28 29 31 33 35 36 37 38 38 38 39 38 37 37 38 39 39 40 41 42 41 43 46 47 48 49 49 49 49 49 47 43 40 39 37 35 33
22 22 23 24 24 24 24 24 24 23 23 23 20 17 16 15 14 14 14 15 17 17 16 15 15 14 14 13 13 13 12 12 11 10 10 11 12 12 12 13 15 16 18 20 21 23 25 27 28 30 31 33 35 37 37 37 38 38 39 40 40 40 40 40 40 42 43 43 43 44 46 48 48 49 50 51 52 52 50 45 40 36 36 35 34
22 22 23 24 24 25 25 26 26 25 25 25 22 19 20 19 17 16 14 14 16 16 15 15 14 14 13 13 13 12 11 10 10 10 12 12 11 11 12 13 15 16 18 20 21 23 25 26 28 30 32 34 35 37 37 38 38 38 39 41 42 42 42 40 39 41 44 44 44 45 46 49 49 49 51 54 56 56 54 48 42 37 34 33 33
23 23 23 23 24 26 26 26 26 25 24 23 21 19 19 18 18 17 14 13 14 15 14 15 14 14 13 13 12 12 10 10 11 12 12 10 10 11 12 13 15 17 19 20 22 24 25 26 28 30 32 34 35 37 38 38 39 40 40 41 42 43 43 41 38 39 43 45 46 46 47 50 51 51 53 56 58 59 58 51 43 38 34 33 32
23 23 22 22 24 25 26 26 27 25 22 20 19 16 15 16 18 17 13 12 14 14 14 14 14 13 13 12 12 11 10 11 12 11 9 9 9 10 12 13 15 17 20 22 23 24 25 26 28 31 33 34 36 38 39 39 39 40 40 41 43 43 43 42 39 38 42 46 48 48 49 50 51 52 53 57 59 61 61 55 46 39 35 32 30
23 23 22 23 25 26 27 27 23 18 17 18 18 16 15 16 17 15 13 12 14 14 14 14 14 13 13 12 12 11 11 12 11 8 8 8 9 10 11 13 15 18 20 22 23 24 25 26 28 31 34 36 37 38 39 40 40 40 40 41 43 43 43 43 42 41 43 46 49 50 49 49 51 52 53 57 60 61 62 58 50 42 37 33 30
23 24 23 24 25 26 27 25 17 13 13 15 16 16 15 15 16 15 13 13 14 14 14 15 14 13 13 12 11 11 12 11 8 7 8 8 9 10 12 13 15 17 19 21 22 23 25 26 28 31 35 37 38 39 40 40 40 40 40 40 40 41 41 41 42 42 44 46 49 50 50 49 50 52 53 56 59 61 60 57 51 43 38 35 33
24 24 23 24 24 23 23 21 17 15 14 14 15 15 14 14 14 14 13 13 14 14 15 15 14 13 12 12 11 12 11 9 7 7 8 8 9 11 12 14 15 17 19 21 22 23 25 27 29 31 35 38 39 39 39 39 39 39 39 39 39 39 39 39 40 41 43 46 49 50 50 49 49 51 53 56 58 58 58 55 50 43 38 35 34
25 24 23 23 23 22 20 20 20 19 15 14 14 13 13 13 13 13 13 13 13 14 14 14 13 13 13 12 12 11 9 8 7 7 7 8 9 11 12 14 16 18 19 20 21 23 24 26 29 32 35 38 38 37 35 36 37 38 39 39 39 40 39 38 37 38 41 44 47 50 51 49 49 51 53 55 57 57 56 53 48 43 38 35 33
26 26 26 24 23 21 21 20 21 19 16 16 15 14 14 13 13 13 13 13 14 14 14 14 14 13 13 13 12 10 8 8 8 7 8 8 10 11 13 15 17 19 20 21 22 23 25 27 30 33 35 35 34 33 33 34 35 37 37 38 38 39 39 37 35 36 39 42 46 50 51 50 50 51 53 55 56 56 55 52 47 43 38 34 31
27 26 26 25 23 22 22 22 21 18 16 17 16 15 15 14 13 13 13 13 14 14 14 14 14 13 13 14 13 10 8 8 7 7 8 9 10 11 13 15 17 19 20 21 22 24 25 27 29 31 31 32 32 32 32 33 35 36 37 37 37 38 37 37 37 37 39 42 46 49 51 51 51 51 52 54 55 56 56 51 46 41 36 33 31
26 25 24 24 24 24 23 22 20 16 15 18 17 16 16 15 13 13 14 14 15 14 14 15 14 13 14 14 13 10 8 8 7 7 8 9 10 11 13 15 17 18 19 20 21 23 25 26 27 28 30 32 34 33 33 33 35 36 37 37 37 37 37 38 39 39 40 43 46 49 51 51 51 51 52 53 53 55 56 50 43 37 34 32 31
24 24 23 24 26 27 24 21 20 17 17 20 19 18 17 15 14 14 15 15 15 14 14 15 14 14 14 14 13 11 9 8 8 7 8 9 10 11 13 15 16 17 18 19 20 21 23 24 25 27 30 33 35 34 34 33 33 32 33 35 36 36 37 38 39 39 40 43 46 49 50 51 50 51 53 55 54 54 53 48 40 34 33 32 29
25 26 26 26 28 28 24 23 22 19 18 21 21 19 18 16 15 16 16 15 15 14 14 15 14 15 15 14 13 11 10 9 8 7 8 9 10 11 13 15 16 17 18 18 19 21 22 23 25 27 30 33 35 34 33 32 30 29 30 33 35 36 36 35 36 39 41 43 46 48 50 50 51 50 52 56 59 57 53 47 39 34 33 32 28
Wind_Direction
276 280 283 286 286 277 266 260 246 231 222 225 219 204 207 209 192 188 202 195 174 189 208 206 198 196 244 288 301 306 306 309 327 344 319 303 310 315 323 328 327 326 326 326 325 325 326 326 326 325 325 324 325 325 326 326 325 324 323 324 324 323 323 322 322 322 321 320 319 319 318 318 316 313 311 307 305 302 302 303 301 303 304 303 300
276 280 281 281 285 274 262 251 237 226 206 209 225 207 190 199 187 166 200 214 177 194 210 200 182 180 216 242 239 258 282 294 304 315 310 303 309 316 321 323 324 325 325 325 325 325 325 324 324 323 323 323 324 324 325 324 323 323 324 324 324 323 322 321 320 320 320 319 318 318 316 316 315 313 311 308 306 303 300 298 296 297 298 301 301
277 279 278 281 291 280 264 260 253 244 208 198 206 202 185 182 188 166 190 226 203 202 201 206 205 195 214 231 234 236 263 288 299 307 309 306 313 319 320 320 323 325 325 326 326 325 324 323 322 322 322 322 323 323 324 324 323 323 324 324 323 322 322 320 319 318 319 318 318 317 315 314 313 312 311 309 308 306 303 298 296 294 293 296 297
276 281 286 291 299 287 272 270 261 258 252 229 203 194 179 166 179 181 201 224 219 207 200 212 220 219 224 233 251 259 270 290 300 306 310 313 317 320 320 321 323 325 324 324 324 324 323 322 322 322 322 322 322 323 324 324 324 323 323 323 322 322 321 321 320 318 317 317 316 315 314 313 312 311 310 309 307 306 305 301 297 293 291 290 291
273 282 287 291 294 279 270 264 251 244 249 248 229 207 166 144 168 188 205 213 207 206 205 212 223 234 240 249 275 285 289 296 301 303 308 314 318 320 320 322 324 326 325 323 323 323 323 322 323 323 323 323 323 324 325 325 324 323 323 323 322 321 321 321 320 319 317 316 314 313 312 311 311 310 309 308 307 306 305 302 297 294 291 288 287
274 280 284 286 284 276 273 267 255 248 250 254 251 255 72 113 194 194 200 204 200 207 209 214 223 245 268 288 288 292 298 302 304 304 307 312 318 321 322 322 323 324 325 324 323 324 325 325 325 324 323 323 323 324 324 324 324 323 323 323 322 321 321 320 319 318 317 316 314 312 310 309 309 308 307 307 306 304 303 302 298 294 291 288 285
276 278 282 279 277 279 274 262 250 241 251 256 235 281 288 204 203 194 196 197 208 216 215 226 254 277 284 293 295 299 304 304 305 306 309 313 318 321 323 323 323 323 323 324 323 324 325 324 324 322 322 322 322 323 323 323 323 323 322 322 322 321 321 320 320 319 318 317 316 313 311 308 306 305 305 304 304 303 301 301 298 295 292 287 284
274 277 277 268 271 279 268 249 236 220 226 231 182 233 236 205 206 210 208 207 224 233 230 244 272 285 292 298 299 301 303 305 307 310 312 315 317 319 321 321 321 322 323 325 325 324 323 322 322 322 323 323 323 323 323 323 322 322 321 321 322 322 322 322 322 321 320 320 318 316 314 311 307 304 303 301 301 301 300 299 296 294 292 288 284
276 282 276 260 273 278 258 241 235 225 219 214 216 239 236 225 223 223 229 233 244 253 259 267 276 287 297 302 301 303 304 306 308 311 313 315 316 317 317 317 319 321 323 324 323 323 323 324 325 325 325 324 324 323 323 323 322 323 323 323 323 324 324 324 324 324 323 322 321 319 318 315 312 309 305 302 299 298 298 298 295 293 291 290 286
278 287 276 265 284 272 243 237 231 229 229 232 240 243 242 242 245 250 254 259 265 269 275 280 284 290 299 301 302 304 305 307 309 311 313 315 316 316 317 319 322 322 322 322 323 326 326 326 326 326 325 324 325 324 324 325 325 326 326 326 326 326 326 326 327 327 326 326 325 324 322 319 317 314 311 307 303 299 297 296 296 293 290 288 287
273 273 255 253 265 243 237 237 230 237 241 241 244 249 248 247 260 267 267 272 271 274 284 291 293 298 301 302 304 306 307 310 312 313 314 315 316 318 321 323 323 322 323 326 327 328 327 326 325 324 324 325 326 326 327 327 328 329 329 329 329 330 330 330 330 330 329 329 328 327 325 323 321 318 316 313 309 305 300 297 295 294 292 288 285
274 264 246 239 225 212 219 218 217 230 232 232 237 246 251 250 256 258 260 267 269 277 290 297 300 304 306 305 306 308 310 313 314 314 314 316 318 321 323 323 323 326 328 329 329 327 326 325 324 324 325 326 327 328 328 329 329 329 330 330 331 332 332 332 332 331 331 330 328 327 325 324 322 320 318 316 313 310 307 302 297 294 293 290 286
279 277 274 263 239 210 208 207 212 220 225 232 235 242 253 257 257 254 257 264 269 280 292 298 301 306 308 309 309 311 312 313 313 314 314 318 320 322 324 326 328 330 329 328 327 326 325 324 324 325 326 327 328 329 329 329 329 330 331 332 333 333 333 332 331 330 329 328 327 326 325 324 323 321 320 318 315 313 310 307 302 296 293 292 289
277 278 281 277 272 260 234 222 219 221 224 231 244 259 267 269 266 262 263 267 273 282 292 297 301 306 310 309 310 310 310 311 312 313 316 319 321 322 326 329 330 329 327 325 325 324 324 324 325 327 327 329 329 330 330 330 331 332 333 334 334 332 331 331 330 330 329 328 327 327 327 326 325 323 321 319 316 314 311 308 304 300 294 290 289
266 263 264 264 264 260 244 233 230 228 228 237 258 271 268 266 266 264 266 270 277 287 295 300 304 307 308 306 306 304 306 310 312 314 317 319 321 325 328 329 328 326 324 324 324 325 325 326 327 327 328 328 328 328 329 331 333 333 333 332 331 330 330 330 330 329 328 328 328 327 327 325 324 323 321 319 317 314 311 308 305 302 298 292 287
257 252 252 251 251 250 240 234 234 236 240 250 265 271 265 262 263 264 267 274 282 291 297 301 304 306 306 306 304 303 309 314 312 316 320 321 325 329 329 327 325 324 324 325 325 326 327 327 328 328 328 326 326 328 330 332 333 332 331 329 329 329 330 330 328 327 326 327 326 325 324 323 323 323 321 320 318 315 312 308 305 302 299 295 290
254 248 247 245 244 243 238 236 239 243 250 257 263 266 262 260 261 263 269 278 286 293 298 300 302 304 304 304 303 305 313 315 314 319 323 324 328 328 325 323 323 324 325 326 327 328 328 328 328 327 326 326 327 329 331 331 331 330 329 329 331 331 330 328 326 325 325 324 323 323 322 323 322 322 321 320 318 316 313 309 305 301 298 295 292
250 248 247 245 242 241 242 242 244 249 256 261 263 261 258 258 260 266 273 281 288 294 297 299 299 300 300 300 300 304 310 311 313 318 319 321 324 321 320 321 323 325 327 328 329 328 328 327 327 326 326 327 328 328 328 328 329 330 331 332 332 331 329 327 326 326 325 324 323 323 323 322 322 321 320 319 318 316 313 310 306 301 296 292 289
249 251 248 245 244 244 245 245 249 254 259 262 261 258 257 259 264 271 278 285 291 293 295 296 296 295 295 296 298 302 307 307 309 312 313 316 319 317 319 322 326 327 328 328 327 326 327 326 327 329 328 327 326 327 329 330 331 332 333 333 331 329 328 329 329 328 327 327 326 325 324 323 323 322 321 319 318 316 313 310 307 303 298 291 286
251 253 250 247 247 247 246 247 251 254 259 261 260 259 260 263 269 275 282 288 291 292 293 294 293 291 292 293 294 299 303 302 305 309 312 313 313 317 321 325 329 329 326 326 326 325 327 328 329 328 325 324 327 331 333 334 335 335 334 332 330 330 331 331 330 329 329 328 326 325 324 324 323 321 321 320 318 316 314 312 309 306 301 294 288
250 250 248 247 247 246 246 248 252 256 260 262 261 262 264 268 273 279 284 287 288 290 291 291 290 289 289 290 292 295 297 299 303 306 309 310 313 321 326 326 326 326 324 324 325 327 328 327 324 319 319 325 331 334 335 336 336 335 333 331 332 333 333 331 330 329 328 327 326 325 324 322 322 321 320 319 318 317 315 314 311 308 303 298 292
249 248 248 247 246 245 246 249 254 258 261 263 263 265 268 272 277 281 284 285 286 289 290 288 287 287 287 287 289 292 295 298 301 301 303 307 314 323 327 325 323 323 323 322 324 327 324 318 315 318 325 332 335 336 336 336 334 333 332 333 334 333 332 331 330 329 328 327 326 324 322 321 320 320 320 319 318 317 316 315 312 309 305 301 296
248 249 251 247 244 246 247 251 256 259 262 264 265 267 271 275 279 281 282 283 286 288 288 286 285 284 283 284 288 292 294 295 295 295 298 305 314 320 325 325 323 324 325 322 323 324 317 314 321 329 334 334 335 336 336 334 333 332 333 334 334 332 330 329 328 328 327 326 324 322 321 320 321 321 321 321 319 318 317 315 313 310 307 302 297
247 247 251 247 245 248 250 253 256 260 263 264 266 269 274 277 279 279 281 285 287 287 286 284 283 282 282 285 289 292 292 291 290 293 299 307 314 318 322 324 322 322 323 321 322 323 320 323 332 335 335 334 334 335 334 333 332 332 332 332 331 329 328 327 327 327 326 323 321 321 321 321 322 323 323 323 321 319 318 316 314 311 308 303 297
248 246 247 246 246 250 252 253 256 259 262 265 268 272 275 276 277 279 283 286 286 286 284 283 282 282 284 286 289 290 290 290 291 295 302 309 313 316 319 321 321 322 321 319 322 328 330 333 335 335 334 334 333 332 332 332 331 331 330 329 328 327 327 327 327 326 324 323 322 322 323 324 325 326 325 324 321 318 316 314 312 311 309 305 299
249 245 244 247 249 251 254 254 255 258 262 266 270 273 274 275 278 281 284 285 284 284 283 282 282 282 284 286 288 291 291 291 293 298 303 308 312 315 317 319 320 319 317 316 320 328 333 333 332 333 333 333 331 331 330 331 330 329 327 327 327 327 327 327 326 325 324 324 324 324 325 327 328 327 326 324 320 316 313 310 309 308 308 306 301
249 245 244 248 252 253 254 254 255 258 263 268 270 271 272 275 279 282 283 283 283 282 281 282 282 282 284 288 291 292 292 292 295 299 303 307 310 314 316 316 316 314 313 312 315 321 327 329 329 329 330 330 329 329 328 328 327 326 325 325 326 327 327 326 326 325 325 325 325 327 329 330 330 329 327 323 319 315 311 308 307 306 305 304 301
248 246 245 249 253 253 253 253 255 260 264 266 268 269 273 276 279 281 282 282 282 281 282 282 282 284 287 290 292 292 292 292 296 299 302 307 310 313 314 313 313 313 312 313 316 319 323 326 327 327 327 327 327 327 326 326 325 324 324 324 325 325 325 326 326 325 324 325 327 330 332 332 332 330 327 323 318 314 311 309 307 306 303 301 299
246 244 246 250 253 252 252 253 256 260 263 265 267 270 274 277 279 281 282 282 282 282 283 283 284 287 289 290 290 291 291 292 295 298 301 306 309 311 311 310 311 311 312 316 318 320 322 324 325 325 325 325 325 325 324 324 324 324 323 323 323 323 324 326 327 325 326 328 331 334 335 334 333 331 328 323 319 317 315 312 310 307 303 299 297
245 245 248 252 252 251 252 254 257 261 263 266 268 271 275 277 280 281 281 282 283 284 284 284 286 287 288 289 289 290 291 291 294 297 301 305 307 307 307 306 306 308 313 317 319 320 321 322 322 323 324 324 324 324 323 323 323 323 323 323 322 323 326 328 327 327 329 333 335 335 335 336 334 332 329 325 323 321 319 316 312 308 303 298 294
245 246 249 251 250 249 251 255 259 262 264 266 269 272 275 277 279 281 281 282 283 284 285 285 286 286 286 288 289 289 289 290 293 296 299 303 304 304 303 303 305 309 315 319 320 320 320 321 322 324 325 325 324 323 323 323 323 324 325 325 325 327 329 329 328 330 333 335 335 335 336 336 336 334 332 330 328 325 322 319 315 310 304 297 293
246 247 248 248 248 249 252 257 260 262 263 266 269 272 276 278 279 281 282 283 284 284 285 285 285 285 286 287 288 288 289 290 292 295 298 300 300 300 300 302 307 312 316 320 320 320 321 323 325 325 324 324 324 323 323 324 326 327 329 329 329 330 330 329 330 332 334 336 336 335 336 336 337 337 337 335 331 328 325 322 317 313 306 297 291
246 247 249 247 247 249 254 259 260 261 264 268 271 273 276 278 280 282 283 284 284 284 284 284 284 285 286 287 288 287 288 289 290 292 294 296 296 297 299 302 309 314 318 320 320 320 322 323 324 323 323 324 325 324 324 327 330 331 333 334 333 332 331 331 331 333 334 336 336 336 336 337 339 340 340 338 334 330 327 323 319 315 310 300 291
246 247 248 248 247 250 256 260 260 263 267 271 272 275 278 280 282 283 284 284 284 284 284 284 284 285 287 288 288 288 288 288 289 292 294 296 297 298 301 307 314 320 322 322 320 322 323 323 322 323 325 326 326 327 329 332 334 335 335 336 333 332 333 333 332 332 334 337 338 337 337 339 342 342 341 339 335 331 328 325 320 317 313 306 296
246 247 250 249 249 251 257 259 261 265 269 271 273 275 278 280 281 283 284 284 284 284 285 285 285 286 287 288 288 288 287 287 289 292 295 298 299 302 309 316 323 325 324 323 322 324 325 324 325 327 328 328 328 331 334 335 336 336 335 335 333 333 335 336 334 333 334 338 340 339 339 341 343 343 342 340 337 333 329 326 322 317 313 309 301
247 250 252 251 251 253 257 259 261 266 269 270 272 274 276 280 283 285 285 285 284 285 284 284 285 286 287 289 288 286 286 287 291 295 298 300 303 309 318 324 326 326 325 325 325 325 326 327 330 331 330 331 333 336 336 336 337 336 333 333 333 334 336 338 336 334 335 339 341 341 341 343 344 343 342 340 338 335 331 328 325 319 313 308 303
249 252 255 254 253 255 257 259 262 266 267 268 270 271 276 281 285 286 286 285 285 284 283 283 284 286 287 287 286 285 285 287 291 295 298 303 309 316 322 325 326 326 326 326 326 326 327 329 332 334 334 335 336 337 337 336 336 335 332 333 334 335 337 339 338 335 335 339 343 344 344 345 345 343 341 340 338 336 334 331 326 321 314 307 300
251 254 257 256 255 256 258 261 265 267 267 267 268 270 275 280 283 284 284 284 283 281 281 281 282 284 284 284 283 282 284 286 291 295 300 307 313 317 323 326 328 327 326 326 326 327 330 332 334 336 337 337 337 337 337 337 336 334 332 332 335 338 339 340 340 337 337 340 344 347 345 344 346 344 341 340 339 339 338 334 327 319 313 307 301
254 257 258 258 258 260 262 265 268 270 270 268 265 266 270 270 269 272 276 279 278 276 277 279 280 281 282 283 281 280 283 286 290 295 301 308 313 319 326 328 327 326 325 326 327 330 333 334 336 338 339 339 337 337 338 337 335 334 333 333 336 340 341 341 341 339 338 340 346 349 347 344 346 345 341 341 342 342 341 336 328 319 311 306 301
256 259 261 262 263 265 268 271 273 274 275 273 269 265 266 264 263 264 267 269 270 271 273 276 278 280 281 281 279 280 282 283 287 296 303 308 316 325 329 328 326 325 325 326 329 333 336 337 338 339 340 340 339 338 337 336 335 336 337 337 338 339 340 342 344 341 338 340 346 349 348 346 346 346 344 343 344 344 343 339 333 324 314 306 301
258 261 264 266 267 269 274 277 278 278 278 277 272 266 267 274 278 276 269 262 263 268 272 274 277 280 280 280 279 278 276 280 291 300 304 311 321 328 328 326 325 324 326 330 334 337 339 340 340 340 340 341 340 339 338 337 338 339 339 338 338 338 339 341 346 345 340 341 346 350 350 348 347 347 346 345 345 345 344 342 336 328 319 310 302
258 262 266 268 269 271 275 278 280 281 279 274 267 263 272 284 284 277 267 260 263 268 271 274 277 280 281 280 275 271 274 286 296 301 306 316 324 327 326 324 325 327 331 335 337 338 341 343 342 340 341 344 344 341 339 339 340 340 340 339 338 339 340 341 346 348 345 344 346 350 353 350 348 348 347 346 346 346 345 343 338 332 325 317 309
258 262 265 266 267 271 276 278 280 279 275 268 262 265 277 283 278 272 268 263 264 268 270 273 277 280 280 275 268 270 282 292 297 300 307 317 321 323 323 325 329 334 335 335 337 340 343 344 344 343 344 347 346 343 341 340 340 340 341 341 339 340 343 344 345 348 348 347 346 350 354 352 349 349 348 347 347 346 345 342 338 334 331 325 318
260 262 264 267 270 273 277 280 281 282 280 269 261 265 273 274 271 270 268 264 265 268 271 274 278 280 275 266 264 277 289 293 295 300 307 315 319 322 325 329 333 335 334 334 338 342 343 344 347 347 348 348 347 345 342 341 341 341 342 342 342 343 346 347 347 348 349 348 347 350 354 354 351 350 350 349 349 347 344 342 338 334 330 325 320
260 262 264 269 273 274 277 282 287 292 287 268 258 263 266 266 270 272 271 270 269 271 274 277 280 277 268 262 269 283 288 288 291 298 306 314 318 322 326 330 334 334 335 337 340 343 344 346 349 350 350 350 349 346 344 341 341 342 343 344 345 345 347 349 350 350 349 349 348 350 354 356 353 351 351 351 350 347 344 341 338 334 330 324 319
260 262 265 269 273 276 280 284 287 289 280 258 250 252 256 263 269 272 273 271 270 272 275 277 278 272 265 267 276 283 284 283 287 293 302 310 316 321 327 332 334 335 337 340 341 343 346 346 349 352 353 352 349 345 343 342 342 343 345 346 347 347 348 350 351 351 350 350 350 350 354 357 354 352 353 353 351 348 344 341 339 336 329 325 320
259 261 264 266 268 273 278 278 279 279 264 245 240 243 250 259 264 266 268 267 267 270 271 273 273 267 265 271 278 279 277 277 282 290 300 309 316 323 330 333 335 336 339 341 343 345 347 348 351 354 353 350 347 344 343 344 344 346 348 348 348 347 347 347 350 353 352 352 353 353 355 357 355 353 355 355 351 348 345 343 341 338 332 328 325
259 260 262 263 267 274 276 273 275 274 254 238 237 242 249 256 258 261 262 261 263 266 266 269 268 264 267 275 277 275 270 269 275 286 298 308 315 324 330 332 335 337 338 341 344 345 347 350 352 351 348 347 348 348 348 348 348 348 349 350 350 348 345 345 350 355 354 354 356 356 356 358 356 354 354 355 352 349 347 345 344 341 337 332 328
261 261 260 262 269 275 273 269 273 271 248 237 239 244 250 255 257 258 257 258 261 263 264 265 264 264 272 276 274 271 265 263 270 283 295 305 314 323 329 331 334 335 337 341 344 343 346 349 346 343 345 350 352 352 353 353 353 351 351 351 350 347 347 348 350 353 355 356 358 358 358 359 358 354 353 355 355 353 350 348 347 344 341 336 330
259 259 257 261 269 273 268 264 267 264 245 237 239 243 248 252 252 251 253 257 260 261 262 262 262 266 272 272 269 266 260 258 266 280 291 301 312 321 326 330 332 332 335 339 340 343 347 345 339 341 348 353 355 355 357 358 357 355 353 353 351 349 349 351 349 350 356 360 0 360 0 1 359 357 354 354 356 357 355 353 351 348 346 343 339
254 257 260 265 268 269 266 263 264 260 246 240 242 244 247 249 248 248 251 255 259 261 261 261 264 269 271 269 266 262 256 255 263 275 287 298 310 319 324 328 329 329 332 335 337 343 344 339 338 346 352 355 356 357 359 359 358 358 358 357 354 351 350 349 348 350 356 1 2 2 2 2 1 360 358 355 355 358 0 0 357 354 354 354 351
Height
3181 3181 3182 3182 3181 3181 3183 3183 3183 3183 3183 3183 3183 3183 3183 3183 3184 3185 3185 3184 3184 3185 3185 3185 3185 3185 3185 3184 3183 3182 3181 3180 3180 3181 3181 3180 3179 3178 3178 3177 3177 3176 3176 3175 3174 3173 3172 3170 3169 3168 3167 3165 3165 3163 3162 3161 3159 3158 3157 3156 3155 3154 3153 3152 3150 3149 3148 3147 3146 3144 3143 3142 3140 3139 3138 3137 3136 3135 3135 3134 3133 3133 3132 3132 3131
3181 3182 3183 3183 3183 3183 3184 3185 3184 3183 3184 3184 3184 3183 3182 3182 3183 3183 3183 3184 3184 3184 3184 3184 3183 3184 3184 3183 3183 3182 3180 3179 3179 3180 3180 3178 3178 3178 3177 3176 3176 3175 3174 3174 3173 3172 3170 3169 3168 3167 3165 3164 3163 3162 3161 3160 3158 3157 3156 3154 3154 3153 3152 3151 3149 3148 3146 3145 3144 3143 3141 3140 3139 3138 3136 3135 3134 3134 3133 3132 3131 3131 3131 3130 3129
3181 3181 3181 3183 3183 3183 3183 3185 3185 3184 3184 3184 3183 3183 3182 3182 3182 3182 3182 3182 3183 3183 3183 3183 3183 3183 3183 3182 3181 3181 3180 3179 3178 3177 3178 3177 3177 3177 3177 3176 3175 3174 3173 3172 3171 3170 3169 3168 3166 3165 3164 3163 3162 3161 3160 3158 3157 3155 3154 3153 3152 3151 3150 3149 3147 3146 3144 3143 3142 3141 3139 3138 3137 3136 3135 3134 3133 3132 3131 3131 3130 3129 3129 3128 3128
3179 3178 3179 3181 3181 3181 3181 3182 3183 3182 3182 3182 3182 3183 3182 3181 3181 3181 3181 3182 3182 3182 3183 3183 3182 3182 3181 3181 3180 3180 3180 3179 3177 3175 3175 3175 3175 3175 3175 3175 3174 3173 3172 3171 3170 3169 3168 3167 3165 3164 3163 3161 3160 3159 3158 3157 3155 3153 3152 3151 3150 3149 3148 3147 3145 3144 3143 3141 3140 3139 3137 3136 3135 3134 3133 3132 3131 3130 3129 3129 3128 3127 3127 3126 3125
3178 3178 3179 3180 3180 3180 3180 3181 3181 3182 3182 3182 3183 3182 3179 3177 3179 3180 3180 3181 3181 3182 3182 3182 3181 3181 3180 3180 3180 3179 3179 3178 3177 3175 3173 3172 3173 3174 3173 3173 3173 3172 3171 3169 3168 3167 3166 3165 3164 3162 3161 3160 3158 3157 3156 3155 3153 3152 3150 3149 3148 3147 3146 3145 3143 3142 3141 3140 3138 3137 3135 3134 3133 3132 3131 3130 3129 3128 3127 3127 3126 3125 3124 3124 3123
3178 3178 3179 3180 3179 3179 3179 3180 3180 3181 3182 3182 3183 3179 3176 3176 3178 3179 3180 3180 3181 3181 3181 3181 3180 3180 3180 3179 3179 3178 3177 3177 3176 3175 3173 3171 3170 3171 3171 3170 3171 3171 3170 3168 3166 3165 3165 3163 3162 3161 3160 3158 3157 3155 3154 3153 3152 3150 3149 3147 3146 3145 3143 3142 3141 3140 3139 3137 3136 3135 3134 3132 3131 3129 3128 3127 3126 3126 3125 3124 3123 3122 3122 3121 3121
3177 3176 3177 3178 3178 3178 3178 3179 3179 3180 3181 3181 3180 3178 3177 3178 3178 3179 3179 3180 3180 3180 3180 3180 3179 3179 3179 3178 3178 3177 3176 3175 3175 3175 3174 3172 3170 3169 3168 3167 3167 3167 3168 3167 3165 3163 3163 3162 3160 3159 3158 3156 3155 3154 3152 3151 3150 3148 3147 3145 3144 3142 3141 3140 3139 3138 3136 3135 3134 3133 3132 3130 3129 3127 3126 3125 3124 3123 3122 3122 3121 3120 3119 3119 3118
3175 3175 3176 3176 3176 3177 3177 3177 3177 3179 3180 3179 3178 3178 3178 3178 3178 3179 3179 3179 3179 3179 3179 3179 3178 3178 3178 3177 3176 3175 3175 3174 3173 3173 3173 3172 3171 3169 3168 3167 3166 3165 3164 3164 3164 3162 3161 3160 3159 3158 3156 3155 3153 3152 3150 3149 3147 3146 3145 3143 3142 3140 3139 3138 3136 3135 3134 3133 3131 3130 3129 3128 3127 3125 3124 3123 3121 3120 3119 3119 3118 3117 3116 3116 3115
3174 3173 3174 3175 3175 3176 3176 3176 3176 3177 3178 3177 3176 3177 3177 3178 3178 3178 3178 3178 3178 3177 3178 3178 3177 3177 3176 3176 3175 3174 3174 3173 3172 3171 3170 3170 3170 3169 3168 3167 3166 3164 3163 3162 3162 3161 3160 3158 3157 3155 3154 3153 3151 3150 3148 3146 3145 3143 3142 3141 3139 3138 3136 3135 3134 3132 3131 3130 3129 3127 3126 3125 3124 3123 3121 3120 3119 3118 3116 3116 3115 3114 3113 3113 3112
3173 3172 3172 3173 3174 3174 3175 3175 3175 3176 3176 3175 3176 3176 3177 3177 3177 3177 3177 3177 3176 3176 3177 3177 3176 3176 3175 3175 3174 3173 3172 3172 3171 3170 3169 3168 3168 3167 3167 3166 3164 3163 3162 3161 3160 3159 3158 3156 3155 3154 3152 3150 3149 3147 3145 3144 3142 3141 3140 3138 3137 3135 3134 3133 3131 3130 3129 3127 3126 3125 3123 3122 3121 3120 3119 3118 3116 3115 3114 3113 3112 3111 3110 3109 3109
3172 3173 3172 3173 3174 3174 3174 3174 3174 3174 3174 3175 3175 3176 3176 3176 3176 3176 3176 3175 3175 3175 3175 3176 3175 3175 3174 3173 3172 3172 3171 3170 3169 3168 3168 3167 3166 3166 3165 3164 3163 3162 3161 3159 3158 3156 3155 3154 3153 3152 3150 3148 3147 3145 3143 3142 3140 3139 3137 3136 3134 3133 3132 3130 3129 3128 3126 3125 3123 3122 3121 3119 3118 3117 3116 3115 3114 3112 3112 3111 3109 3108 3107 3106 3105
3169 3171 3172 3173 3174 3175 3174 3174 3174 3174 3174 3174 3175 3175 3175 3175 3176 3175 3175 3175 3174 3174 3174 3174 3173 3173 3173 3172 3171 3170 3169 3168 3167 3167 3166 3165 3164 3164 3163 3163 3162 3160 3159 3157 3156 3155 3153 3151 3150 3149 3148 3147 3145 3143 3141 3140 3138 3137 3135 3134 3133 3131 3130 3128 3127 3126 3124 3122 3121 3120 3118 3117 3115 3114 3113 3112 3111 3109 3108 3108 3107 3105 3104 3103 3102
3166 3167 3168 3170 3171 3172 3172 3172 3172 3173 3173 3173 3174 3174 3175 3175 3175 3174 3174 3174 3173 3173 3173 3173 3172 3171 3171 3170 3169 3168 3167 3167 3166 3165 3165 3164 3163 3162 3162 3161 3160 3159 3157 3156 3154 3153 3152 3150 3148 3146 3145 3144 3143 3141 3140 3138 3136 3135 3134 3132 3131 3129 3128 3127 3125 3124 3122 3121 3119 3118 3116 3115 3113 3112 3110 3109 3107 3106 3105 3104 3103 3102 3101 3100 3099
3166 3165 3166 3166 3167 3169 3169 3170 3170 3171 3172 3172 3173 3173 3173 3174 3174 3173 3173 3173 3172 3172 3172 3171 3170 3170 3169 3168 3167 3167 3166 3165 3165 3164 3163 3162 3162 3161 3160 3159 3158 3157 3156 3154 3153 3152 3151 3149 3147 3145 3143 3142 3140 3139 3138 3136 3135 3134 3132 3131 3129 3128 3126 3125 3123 3122 3120 3119 3117 3115 3114 3112 3111 3109 3108 3106 3104 3103 3101 3100 3099 3098 3098 3097 3095
3165 3165 3165 3165 3166 3167 3168 3168 3169 3170 3170 3171 3171 3171 3172 3172 3172 3172 3172 3171 3171 3171 3171 3170 3169 3168 3168 3167 3166 3166 3165 3164 3163 3163 3162 3161 3161 3160 3159 3158 3157 3155 3154 3153 3152 3150 3149 3147 3146 3144 3142 3140 3138 3137 3136 3135 3134 3132 3131 3129 3128 3126 3124 3122 3121 3119 3118 3116 3115 3113 3111 3110 3108 3107 3105 3103 3102 3100 3098 3096 3095 3093 3093 3092 3092
3164 3164 3164 3165 3165 3166 3167 3167 3168 3168 3169 3170 3170 3170 3170 3171 3171 3171 3171 3170 3170 3169 3169 3168 3167 3166 3166 3165 3165 3164 3164 3163 3162 3161 3161 3160 3159 3158 3157 3156 3155 3154 3152 3151 3150 3149 3148 3146 3144 3142 3140 3139 3137 3136 3134 3133 3132 3130 3129 3127 3126 3124 3122 3120 3119 3117 3115 3113 3112 3110 3108 3106 3105 3103 3102 3100 3098 3097 3095 3093 3091 3089 3088 3087 3086
3162 3163 3163 3164 3165 3165 3166 3166 3167 3167 3168 3168 3169 3169 3169 3170 3170 3170 3169 3169 3168 3168 3167 3167 3166 3165 3164 3163 3162 3162 3162 3161 3160 3160 3159 3158 3157 3156 3156 3155 3153 3152 3151 3149 3148 3147 3146 3144 3143 3141 3139 3137 3136 3134 3133 3132 3130 3129 3127 3125 3123 3122 3120 3118 3116 3114 3112 3110 3108 3106 3104 3103 3101 3099 3098 3096 3094 3092 3090 3089 3087 3085 3083 3081 3080
3160 3161 3162 3163 3163 3164 3165 3165 3166 3166 3167 3167 3167 3168 3168 3168 3168 3168 3168 3168 3167 3166 3165 3165 3164 3163 3162 3161 3161 3160 3160 3159 3158 3158 3157 3157 3156 3155 3154 3153 3152 3150 3149 3148 3146 3145 3143 3142 3141 3139 3137 3136 3134 3133 3132 3130 3128 3127 3125 3123 3121 3119 3117 3115 3113 3111 3108 3106 3104 3102 3100 3098 3096 3094 3093 3091 3089 3087 3085 3083 3081 3079 3078 3076 3074
3159 3159 3161 3162 3162 3163 3164 3164 3165 3165 3165 3166 3166 3166 3167 3167 3167 3167 3166 3166 3165 3165 3164 3163 3163 3162 3161 3160 3159 3158 3158 3157 3156 3156 3155 3156 3155 3154 3153 3151 3150 3148 3147 3146 3145 3143 3141 3140 3138 3137 3135 3134 3133 3131 3130 3128 3126 3124 3123 3121 3119 3117 3115 3112 3110 3107 3105 3102 3100 3097 3095 3092 3090 3088 3086 3085 3083 3081 3079 3077 3075 3073 3071 3070 3068
3158 3159 3160 3160 3161 3162 3162 3163 3163 3164 3164 3164 3165 3165 3165 3165 3165 3165 3165 3164 3163 3163 3162 3162 3161 3160 3160 3159 3158 3157 3157 3156 3155 3153 3152 3153 3153 3153 3151 3149 3148 3146 3145 3144 3143 3141 3140 3138 3136 3134 3133 3132 3131 3129 3128 3126 3124 3122 3120 3119 3117 3114 3112 3109 3107 3104 3101 3099 3096 3093 3090 3088 3085 3083 3080 3078 3076 3074 3072 3070 3068 3067 3065 3063 3061
3157 3158 3158 3159 3160 3160 3161 3161 3162 3162 3163 3163 3163 3163 3164 3164 3164 3163 3163 3162 3162 3161 3161 3160 3160 3159 3158 3158 3157 3156 3155 3155 3153 3152 3150 3149 3149 3149 3149 3148 3147 3146 3143 3141 3140 3139 3137 3136 3135 3133 3131 3130 3128 3127 3125 3123 3122 3120 3118 3116 3114 3111 3109 3106 3104 3101 3098 3095 3092 3089 3086 3083 3081 3078 3076 3073 3070 3067 3065 3063 3062 3060 3058 3057 3055
3156 3156 3157 3158 3158 3159 3160 3160 3160 3161 3161 3162 3162 3162 3162 3162 3162 3162 3161 3161 3160 3160 3159 3158 3158 3157 3157 3156 3156 3155 3155 3154 3152 3151 3150 3148 3146 3145 3145 3144 3144 3144 3143 3140 3139 3137 3136 3135 3134 3132 3129 3128 3126 3124 3123 3121 3119 3118 3116 3113 3111 3109 3106 3103 3101 3098 3095 3092 3089 3086 3083 3080 3077 3074 3071 3068 3065 3062 3059 3057 3055 3053 3052 3051 3049
3155 3155 3155 3156 3157 3158 3158 3159 3159 3159 3160 3160 3160 3160 3161 3160 3160 3160 3159 3159 3158 3158 3157 3157 3156 3156 3156 3155 3155 3154 3153 3152 3151 3150 3149 3147 3145 3143 3142 3141 3139 3139 3140 3139 3137 3136 3135 3133 3131 3129 3127 3126 3124 3123 3121 3119 3117 3115 3113 3111 3109 3107 3104 3101 3098 3095 3092 3089 3086 3083 3080 3076 3073 3069 3065 3062 3059 3056 3053 3051 3049 3047 3046 3045 3044
3154 3154 3154 3155 3156 3156 3157 3157 3158 3158 3159 3159 3159 3159 3159 3159 3158 3158 3158 3157 3157 3156 3156 3155 3155 3155 3154 3154 3153 3153 3152 3151 3150 3149 3148 3146 3144 3142 3141 3140 3138 3136 3135 3135 3135 3134 3133 3131 3129 3127 3126 3124 3123 3121 3120 3118 3115 3113 3111 3109 3107 3104 3102 3099 3096 3093 3090 3087 3084 3080 3077 3073 3069 3065 3061 3057 3053 3050 3047 3045 3043 3041 3040 3039 3038
3152 3153 3153 3154 3155 3155 3155 3156 3157 3157 3157 3157 3157 3157 3157 3157 3156 3156 3156 3155 3155 3154 3154 3154 3153 3153 3153 3152 3152 3151 3150 3149 3148 3147 3146 3144 3143 3141 3140 3139 3138 3135 3133 3131 3131 3131 3129 3128 3127 3126 3124 3123 3121 3119 3117 3115 3113 3111 3109 3107 3105 3102 3099 3096 3093 3090 3087 3084 3081 3077 3073 3069 3065 3061 3057 3052 3048 3045 3042 3040 3038 3036 3034 3033 3032
3150 3151 3152 3152 3153 3154 3154 3155 3155 3155 3156 3156 3155 3155 3155 3155 3155 3154 3154 3153 3153 3153 3152 3152 3152 3151 3151 3151 3150 3149 3148 3147 3146 3145 3144 3142 3141 3140 3139 3138 3137 3136 3133 3130 3128 3128 3128 3127 3125 3124 3122 3121 3119 3117 3115 3113 3111 3109 3106 3104 3102 3099 3096 3093 3090 3087 3084 3081 3077 3074 3070 3067 3062 3058 3053 3049 3045 3041 3038 3035 3032 3030 3029 3027 3026
3148 3149 3150 3151 3152 3152 3153 3153 3153 3154 3154 3154 3154 3154 3153 3153 3153 3152 3152 3152 3151 3151 3151 3150 3150 3150 3149 3149 3148 3147 3146 3146 3144 3143 3142 3141 3140 3138 3137 3136 3135 3135 3134 3131 3129 3128 3128 3127 3125 3123 3121 3120 3118 3115 3114 3112 3109 3107 3104 3102 3099 3096 3093 3091 3087 3084 3081 3078 3075 3071 3067 3063 3059 3054 3050 3045 3041 3037 3034 3030 3028 3025 3023 3021 3020
3147 3148 3149 3150 3150 3150 3151 3151 3151 3152 3152 3152 3152 3152 3151 3151 3151 3150 3150 3150 3149 3149 3149 3149 3148 3148 3147 3147 3146 3145 3145 3144 3143 3141 3140 3139 3138 3137 3136 3135 3134 3133 3132 3131 3129 3128 3126 3125 3124 3122 3120 3118 3117 3114 3112 3110 3108 3105 3102 3099 3097 3094 3091 3088 3085 3082 3079 3076 3072 3068 3064 3059 3055 3050 3045 3041 3036 3032 3028 3025 3021 3019 3017 3015 3014
3145 3146 3148 3148 3148 3149 3149 3149 3149 3150 3150 3150 3150 3150 3150 3149 3149 3149 3148 3148 3148 3148 3147 3147 3146 3146 3146 3145 3144 3144 3143 3142 3141 3140 3139 3137 3136 3135 3134 3133 3132 3131 3130 3129 3128 3127 3125 3124 3122 3121 3119 3117 3115 3113 3110 3108 3106 3103 3100 3098 3095 3092 3089 3086 3083 3079 3076 3072 3068 3064 3060 3056 3051 3046 3041 3036 3032 3027 3023 3019 3015 3013 3011 3009 3007
3143 3145 3146 3146 3147 3147 3147 3147 3148 3148 3148 3148 3148 3148 3148 3148 3147 3147 3147 3146 3146 3146 3145 3145 3145 3144 3144 3143 3143 3142 3141 3140 3139 3138 3137 3136 3135 3134 3133 3132 3131 3130 3129 3128 3126 3125 3124 3123 3121 3119 3118 3115 3113 3111 3109 3106 3104 3101 3099 3096 3093 3089 3086 3083 3079 3076 3072 3068 3065 3061 3057 3052 3048 3043 3037 3032 3027 3022 3018 3014 3010 3007 3005 3003 3002
3142 3143 3144 3144 3145 3145 3145 3146 3146 3146 3146 3146 3146 3146 3146 3146 3145 3145 3145 3145 3144 3144 3143 3143 3143 3142 3142 3141 3141 3140 3139 3138 3137 3136 3135 3134 3134 3133 3132 3131 3130 3129 3128 3127 3125 3124 3122 3121 3119 3117 3116 3114 3111 3109 3107 3105 3102 3099 3096 3093 3089 3086 3083 3079 3075 3072 3068 3065 3061 3057 3053 3049 3044 3039 3034 3029 3024 3018 3013 3009 3005 3002 2999 2998 2996
3140 3141 3142 3142 3143 3143 3144 3144 3144 3144 3144 3144 3144 3144 3144 3144 3143 3143 3143 3143 3142 3142 3141 3141 3141 3141 3140 3140 3139 3138 3137 3136 3135 3135 3134 3133 3132 3132 3131 3130 3129 3128 3126 3125 3124 3123 3121 3119 3117 3115 3113 3111 3109 3106 3104 3101 3098 3095 3092 3089 3085 3082 3079 3076 3072 3068 3065 3061 3057 3053 3049 3045 3040 3035 3030 3025 3020 3014 3009 3004 3000 2997 2994 2992 2990
3138 3139 3140 3140 3141 3141 3142 3142 3142 3142 3142 3142 3142 3142 3142 3142 3141 3141 3141 3141 3140 3140 3140 3140 3139 3139 3139 3138 3137 3137 3136 3135 3134 3133 3133 3132 3131 3131 3130 3129 3128 3126 3125 3124 3123 3122 3120 3118 3115 3113 3111 3109 3107 3104 3101 3097 3094 3091 3088 3085 3082 3079 3076 3072 3068 3065 3061 3058 3054 3049 3044 3040 3035 3030 3025 3021 3016 3011 3006 3001 2996 2992 2989 2986 2984
3136 3137 3138 3138 3139 3139 3140 3140 3141 3141 3141 3140 3140 3140 3140 3140 3140 3139 3139 3139 3139 3138 3138 3138 3138 3137 3137 3136 3136 3135 3134 3133 3133 3132 3131 3131 3130 3129 3129 3127 3126 3125 3124 3123 3121 3120 3119 3117 3114 3112 3109 3106 3104 3101 3097 3093 3090 3086 3084 3082 3079 3076 3073 3069 3065 3061 3058 3055 3050 3045 3040 3035 3030 3025 3021 3017 3012 3007 3002 2997 2992 2987 2984 2981 2979
3134 3135 3136 3137 3137 3137 3138 3139 3139 3139 3139 3138 3138 3138 3138 3138 3138 3138 3138 3137 3137 3137 3137 3136 3136 3136 3135 3135 3134 3133 3132 3132 3131 3131 3130 3130 3129 3128 3127 3126 3125 3123 3122 3121 3119 3118 3116 3114 3112 3109 3106 3103 3100 3097 3093 3089 3086 3083 3080 3079 3076 3073 3070 3066 3062 3057 3054 3051 3047 3041 3035 3030 3026 3021 3016 3012 3008 3003 2997 2993 2988 2983 2979 2976 2974
3131 3133 3134 3135 3135 3136 3136 3137 3137 3137 3136 3136 3136 3136 3136 3136 3136 3136 3136 3136 3135 3135 3135 3134 3134 3134 3133 3133 3132 3131 3131 3130 3130 3130 3129 3128 3127 3126 3125 3124 3123 3122 3120 3119 3117 3115 3113 3111 3109 3106 3103 3100 3097 3093 3090 3086 3083 3080 3078 3076 3073 3070 3067 3063 3059 3054 3050 3047 3043 3038 3032 3026 3021 3017 3012 3008 3003 2998 2992 2987 2982 2979 2975 2972 2969
3130 3131 3132 3133 3133 3133 3134 3134 3134 3134 3134 3134 3135 3135 3135 3134 3134 3134 3134 3134 3133 3133 3133 3132 3132 3132 3131 3131 3130 3129 3129 3129 3128 3128 3127 3126 3126 3124 3123 3122 3121 3120 3119 3117 3115 3113 3110 3108 3106 3104 3101 3097 3094 3091 3087 3083 3080 3078 3075 3073 3070 3066 3063 3060 3056 3050 3046 3043 3040 3034 3028 3023 3018 3013 3008 3004 2999 2993 2988 2982 2977 2973 2970 2967 2964
3128 3129 3130 3130 3131 3131 3131 3132 3132 3132 3132 3132 3133 3133 3133 3133 3132 3132 3132 3131 3131 3131 3131 3130 3130 3130 3129 3129 3128 3128 3127 3127 3127 3126 3125 3125 3123 3122 3121 3120 3120 3118 3117 3115 3113 3111 3109 3106 3103 3101 3099 3095 3091 3088 3085 3081 3078 3075 3071 3069 3067 3063 3059 3056 3052 3046 3042 3039 3036 3031 3024 3019 3015 3009 3004 2999 2994 2988 2982 2977 2972 2968 2964 2961 2959
3126 3127 3127 3128 3129 3129 3129 3130 3130 3130 3130 3130 3131 3131 3131 3130 3130 3129 3129 3129 3129 3129 3129 3128 3128 3127 3127 3127 3126 3126 3126 3125 3125 3124 3124 3123 3122 3121 3120 3119 3118 3117 3115 3114 3112 3110 3107 3104 3102 3099 3097 3093 3089 3086 3082 3079 3077 3073 3069 3064 3061 3058 3055 3052 3047 3041 3037 3034 3031 3027 3021 3015 3011 3006 3000 2994 2988 2983 2977 2972 2967 2963 2959 2956 2953
3124 3125 3125 3126 3127 3127 3127 3127 3128 3128 3128 3128 3129 3129 3128 3127 3127 3126 3126 3126 3126 3126 3126 3126 3126 3125 3125 3125 3125 3124 3124 3124 3123 3123 3122 3121 3120 3119 3118 3118 3117 3115 3114 3112 3110 3108 3105 3103 3100 3097 3095 3092 3088 3083 3080 3077 3074 3071 3066 3061 3056 3053 3051 3048 3045 3038 3033 3029 3027 3024 3018 3011 3007 3003 2996 2990 2984 2978 2972 2966 2961 2957 2954 2951 2948
3122 3123 3124 3124 3124 3124 3125 3125 3126 3127 3127 3127 3126 3126 3126 3125 3125 3125 3124 3123 3124 3124 3124 3124 3123 3123 3123 3123 3123 3123 3123 3122 3122 3121 3120 3119 3118 3118 3117 3116 3115 3114 3112 3110 3108 3106 3104 3101 3098 3096 3093 3090 3086 3081 3078 3074 3070 3066 3063 3058 3054 3051 3047 3044 3042 3037 3030 3025 3023 3020 3014 3007 3002 2998 2992 2985 2979 2972 2966 2960 2955 2951 2948 2945 2942
3120 3121 3122 3122 3121 3122 3122 3123 3123 3124 3124 3124 3123 3123 3123 3123 3123 3122 3121 3121 3121 3121 3121 3121 3121 3121 3122 3122 3121 3121 3121 3120 3120 3119 3118 3118 3117 3116 3116 3115 3114 3112 3110 3108 3106 3104 3102 3100 3097 3094 3091 3088 3083 3079 3075 3072 3068 3064 3060 3056 3051 3047 3044 3040 3038 3035 3029 3022 3018 3015 3011 3004 2999 2994 2988 2981 2975 2968 2961 2955 2950 2945 2942 2938 2936
3118 3118 3119 3119 3119 3120 3120 3120 3121 3121 3120 3120 3120 3120 3120 3120 3120 3120 3119 3119 3119 3119 3119 3119 3119 3119 3120 3120 3120 3119 3119 3119 3118 3117 3117 3116 3116 3115 3114 3113 3112 3110 3108 3106 3105 3103 3100 3098 3096 3093 3089 3085 3081 3077 3073 3069 3065 3061 3058 3053 3048 3044 3040 3036 3032 3029 3026 3020 3015 3011 3007 3002 2996 2991 2985 2978 2971 2964 2957 2950 2945 2941 2937 2933 2930
3115 3116 3116 3116 3117 3117 3117 3117 3118 3117 3117 3117 3117 3117 3118 3118 3118 3117 3117 3116 3117 3117 3117 3117 3117 3117 3118 3118 3118 3118 3117 3116 3116 3116 3115 3115 3114 3114 3113 3112 3110 3109 3107 3105 3103 3101 3099 3097 3094 3091 3086 3082 3079 3075 3070 3066 3062 3059 3055 3052 3047 3043 3039 3035 3030 3026 3023 3018 3012 3008 3004 2999 2993 2988 2983 2976 2969 2962 2955 2949 2943 2937 2933 2929 2926
3112 3113 3114 3114 3114 3114 3114 3114 3114 3114 3114 3114 3114 3115 3115 3115 3115 3115 3115 3115 3115 3115 3115 3115 3115 3116 3116 3116 3116 3116 3115 3115 3114 3114 3114 3113 3113 3112 3111 3110 3109 3108 3106 3104 3101 3099 3097 3095 3092 3089 3085 3081 3077 3073 3069 3064 3060 3056 3053 3050 3046 3042 3038 3035 3030 3025 3021 3016 3011 3006 3002 2996 2990 2985 2980 2974 2967 2960 2953 2946 2940 2934 2930 2925 2921
3110 3110 3111 3111 3111 3111 3112 3112 3112 3112 3112 3111 3111 3112 3113 3113 3113 3112 3113 3113 3113 3113 3113 3113 3114 3114 3114 3114 3114 3114 3113 3113 3113 3113 3112 3112 3111 3110 3110 3108 3107 3106 3104 3102 3100 3098 3096 3094 3091 3087 3083 3079 3075 3072 3068 3064 3059 3055 3051 3047 3044 3040 3036 3033 3030 3026 3022 3016 3010 3004 2999 2994 2988 2983 2978 2971 2964 2958 2950 2943 2937 2930 2925 2921 2917
3107 3108 3108 3108 3108 3108 3108 3109 3109 3109 3109 3109 3109 3109 3110 3110 3110 3110 3110 3111 3111 3111 3111 3111 3112 3112 3112 3112 3112 3112 3112 3112 3111 3111 3111 3110 3109 3109 3108 3107 3105 3104 3102 3100 3098 3096 3094 3091 3088 3084 3082 3079 3076 3073 3069 3064 3059 3055 3051 3047 3043 3039 3035 3032 3030 3027 3022 3016 3010 3002 2996 2991 2986 2980 2975 2969 2962 2955 2948 2940 2933 2926 2921 2917 2913
3104 3105 3105 3106 3105 3105 3105 3106 3106 3106 3106 3106 3106 3107 3107 3107 3107 3108 3108 3108 3108 3109 3109 3109 3110 3110 3110 3110 3110 3110 3110 3110 3110 3109 3109 3108 3108 3107 3106 3105 3104 3102 3100 3098 3096 3094 3092 3090 3087 3085 3083 3080 3077 3073 3068 3064 3059 3054 3050 3046 3042 3038 3033 3030 3026 3024 3020 3015 3009 3002 2995 2989 2983 2977 2972 2968 2961 2953 2945 2937 2930 2923 2918 2914 2910
3102 3102 3103 3103 3103 3103 3103 3102 3102 3103 3103 3103 3104 3105 3105 3105 3105 3106 3106 3106 3106 3107 3107 3107 3108 3108 3109 3109 3108 3109 3109 3109 3108 3108 3107 3107 3106 3106 3105 3104 3102 3101 3099 3097 3095 3093 3091 3089 3088 3086 3083 3080 3076 3072 3068 3063 3058 3053 3048 3044 3040 3036 3032 3027 3023 3021 3018 3013 3007 3001 2995 2988 2982 2975 2969 2966 2961 2952 2942 2934 2928 2922 2917 2913 2908
3099 3099 3099 3100 3100 3100 3100 3100 3099 3100 3100 3100 3101 3102 3102 3102 3103 3103 3104 3104 3104 3105 3105 3106 3106 3107 3107 3107 3107 3107 3107 3107 3107 3106 3106 3106 3105 3104 3103 3102 3101 3100 3099 3097 3095 3093 3091 3089 3088 3085 3082 3078 3074 3071 3067 3062 3058 3053 3048 3043 3039 3034 3030 3026 3022 3019 3017 3012 3006 3000 2994 2988 2982 2975 2967 2961 2958 2952 2943 2933 2926 2921 2916 2912 2907
3096 3096 3096 3097 3098 3098 3097 3097 3096 3097 3098 3098 3098 3099 3100 3100 3101 3101 3101 3102 3102 3103 3103 3104 3104 3105 3105 3105 3105 3106 3106 3106 3105 3105 3105 3104 3104 3103 3102 3101 3100 3099 3097 3096 3094 3092 3091 3089 3087 3084 3080 3077 3074 3070 3066 3062 3058 3054 3049 3044 3039 3033 3029 3026 3023 3018 3014 3010 3005 3000 2994 2987 2981 2975 2967 2958 2950 2946 2941 2934 2926 2921 2916 2911 2907